AirNav   Everest Fuels
 
 421 users online  

9B8 Salmon River Airfield
Marlborough, Connecticut, USA

GOING TO MARLBOROUGH?


FAA INFORMATION EFFECTIVE 25 FEBRUARY 2021

Location

FAA Identifier: 9B8
Lat/Long: 41-35-22.3560N 072-26-32.3080W
41-35.372600N 072-26.538467W
41.5895433,-72.4423078
(estimated)
Elevation: 540 ft. / 165 m (estimated)
Variation: 14W (1985)
From city: 3 miles S of MARLBOROUGH, CT
Time zone: UTC -5 (UTC -4 during Daylight Saving Time)
Zip code: 06447

Airport Operations

Airport use: Open to the public
Activation date: 04/1962
Control tower: no
ARTCC: BOSTON CENTER
FSS: BRIDGEPORT FLIGHT SERVICE STATION
NOTAMs facility: BDR (NOTAM-D service available)
Attendance: IREG
ARPT CLSD SS-SR.
Wind indicator: yes
Segmented circle: no

Airport Communications

CTAF: 122.9
WX AWOS-3 at SNC (13 nm S): 118.325 (860-526-1551)
WX ASOS at HFD (13 nm NW): PHONE 860-527-5837
WX ASOS at IJD (15 nm NE): 133.675 (860-456-8839)
WX AWOS-AV at CT71 (18 nm NW): 129.825
WX ASOS at MMK (18 nm W): 134.925 (203-639-9405)

Nearby radio navigation aids

VOR radial/distance  VOR name  Freq  Var
HFDr136/5.6HARTFORD VOR/DME114.9013W
ORWr290/20.0NORWICH VOR/DME110.0014W
MADr047/20.0MADISON VOR/DME110.4013W
GONr326/23.4GROTON VOR/DME110.8514W
PUTr245/34.6PUTNAM VOR/DME117.4014W
BAFr174/36.5BARNES VORTAC113.0014W

Airport Services

Parking: tiedowns
Airframe service: NONE
Powerplant service: NONE

Runway Information

Runway 17/35

Dimensions: 2000 x 60 ft. / 610 x 18 m
Surface: turf, in good condition
RUNWAY 17  RUNWAY 35
Traffic pattern: rightleft
Obstructions: 46 ft. trees, 486 ft. from runway, 250 ft. left of centerline, 10:1 slope to clear68 ft. trees, 834 ft. from runway, 209 ft. right of centerline, 12:1 slope to clear

Airport Ownership and Management from official FAA records

Ownership: Privately-owned
Owner: SALMON RIVER AIRFIELD ASSOC
44 BULLHILL RD
COLCHESTER, CT 06415
Phone 860-267-6562
Manager: MARK DITOMASSO
141 OGDEN ROAD
COLCHESTER, CT 06415
Phone (860) 883-4272

Airport Operational Statistics

Aircraft based on the field: 9
Single engine airplanes: 7
Helicopters: 2
    
Aircraft operations: avg 67/month *
62% local general aviation
38% transient general aviation
* for 12-month period ending 31 August 2014

Additional Remarks

ARPT CLSD DEC 15 - APR 30.
PAE INVOF RY'S AND TWYS.
ALL SURFACES , RY & TWY, WORK IN PROGRESS, MAINTENANCE.
FOR CD CTC YANKEE APCH AT 860-386-3597

Instrument Procedures

There are no published instrument procedures at 9B8.

Some nearby airports with instrument procedures:

KSNC - Chester Airport (13 nm S)
KHFD - Hartford-Brainard Airport (13 nm NW)
KIJD - Windham Airport (15 nm NE)
KMMK - Meriden Markham Municipal Airport (18 nm W)
4B8 - Robertson Field Airport (20 nm W)
 
Loc | Ops | Rwys | IFR | FBO | Links
Com | Nav | Svcs | Stats | Notes

Silver City Flying Club
 
Area around 9B8 (Salmon River Airfield)
 
Road maps at: MapQuest Bing Google
 
Aerial photo
WARNING: Photo may not be current or correct
Aerial photo of 9B8 (Salmon River Airfield)
Photo taken 18-Sep-2005

Do you have a better or more recent aerial photo of Salmon River Airfield that you would like to share? If so, please send us your photo.

 
Sectional chart

 
Airport distance calculator
Flying to Salmon River Airfield? Find the distance to fly.

From to 9B8

Sunrise and sunset
Times for 02-Mar-2021
 Local
(UTC-5)
 Zulu
(UTC)
Morning civil twilight05:5610:56
Sunrise06:2411:24
Sunset17:4022:40
Evening civil twilight18:0823:08

Current date and time
Zulu (UTC)  02-Mar-2021 06:26:15
Local (UTC-5)  02-Mar-2021 01:26:15
 
METAR
KSNC 
13nm S 
020555Z AUTO 30008G23KT 10SM FEW050 FEW060 M04/M16 A2983 RMK AO2
KHFD 
13nm NW 
020553Z AUTO 30017G34KT 10SM BKN046 M04/M16 A2988 RMK AO2 PK WND 31034/0549 SNB29E39 SLP117 P0000 60000 T10441156 10033 21044 53039
KIJD 
15nm NE 
020552Z AUTO 29017G38KT 10SM SCT060 M04/M18 A2984 RMK AO2 PK WND 28038/0546 UPB10E12SNB0458E10 SLP105 P0000 60000 T10441183 10017 21044 51048
KMMK 
18nm W 
020553Z AUTO 31020G37KT 9SM -SN OVC055 M04/M17 A2987 RMK AO2 PK WND 27037/0544 SLP115 P0000 60000 T10391167 10033 21039 51041
KBDL 
23nm NW 
020551Z 30022G46KT 280V340 10SM FEW034 FEW055 M06/M19 A2986 RMK AO2 PK WND 30049/0534 SLP111 T10611189 10011 21061 53038
KGON 
23nm SE 
020556Z AUTO 30023G36KT 10SM CLR M03/M14 A2981 RMK AO2 PK WND 30041/0546 SLP094 T10281144 10028 21028 53038
TAF
KBDL 
23nm NW 
020520Z 0206/0312 31025G41KT P6SM SCT060 FM021400 31024G40KT P6SM SKC FM022200 30013G27KT P6SM SKC FM030100 28009KT P6SM SKC FM030600 24005KT P6SM SCT200
KGON 
23nm SE 
011737Z 0118/0218 27010KT P6SM OVC006 TEMPO 0118/0120 SCT006 OVC014 FM012000 29012KT P6SM BKN018 OVC035 TEMPO 0120/0122 SCT020 OVC035 FM012200 29014G29KT P6SM BKN040 FM020500 30020G42KT P6SM FEW250
NOTAMs
Click for the latest NOTAMs
NOTAMs are issued by the DoD/FAA and will open in a separate window not controlled by AirNav.

 

 
 

Would you like to see your business listed on this page?

 If your business provides an interesting product or service to pilots, flight crews, aircraft, or users of the Salmon River Airfield, you should consider listing it here.  To start the listing process, click on the button below
 
Add a business
 

Other Pages about Salmon River Airfield

Update a link
 
Copyright © AirNav, LLC. All rights reserved. Privacy Policy  Contact